Regional Weather Roundup
Issued by NWS Kansas City/Pleasant Hill, MO

Home | Current Version | Previous Version | Graphics & Text | Print | Product List | Glossary Off
Versions: 1 2 3 4 5 6 7 8 9 10 11 12 13 14 15 16 17 18 19 20 21 22 23 24 25 26 27 28 29 30 31 32 33 34 35 36 37 38 39 40 41 42 43 44 45 46 47 48 49 50

000
ASUS43 KEAX 180011
RWREAX

WEATHER ROUNDUP FOR EASTERN KANSAS AND NORTHWEST MISSOURI
NATIONAL WEATHER SERVICE KANSAS CITY/PLEASANT HILL MO
600 PM CST WED DEC 17 2014

KSZ040-057-103>105-MOZ028-029-037-043-180100-
...KANSAS CITY METROPOLITAN AREA...

CITY           SKY/WX    TMP DP  RH WIND       PRES   REMARKS
K.C. INTL      CLOUDY    29  21  72 E6        30.24F WCI  23
6HR MIN TEMP:  27; 6HR MAX TEMP:  30;

K.C. DOWNTOWN  CLOUDY    31  20  63 E8        30.25F WCI  23
6HR MIN TEMP:  29; 6HR MAX TEMP:  32;

LEES SUMMIT    CLOUDY    30  21  69 NE7       30.24F WCI  23
6HR MIN TEMP:  28; 6HR MAX TEMP:  31;

OLATHE - IXD   CLOUDY    30  22  72 E6        30.23F WCI  24
6HR MIN TEMP:  28; 6HR MAX TEMP:  30; 6HR PCP: TRACE;

OLATHE - OJC   CLOUDY    31  21  66 E6        30.22F WCI  25
6HR MIN TEMP:  28; 6HR MAX TEMP:  31;

LAWRENCE       CLOUDY    30  20  66 NE6       30.24F WCI  24

$$

MOZ001>008-011>017-020>025-030>033-038>040-044>046-053-054-180100-
...NORTHERN AND CENTRAL MISSOURI...

CITY           SKY/WX    TMP DP  RH WIND       PRES   REMARKS
ST. JOSEPH     CLOUDY    29  21  72 E6        30.26F WCI  23
6HR MIN TEMP:  27; 6HR MAX TEMP:  30;

MOSBY          CLOUDY    32  23  69 NE5       30.26F WCI  27
WHITEMAN AFB   CLOUDY    31  23  73 NE7       30.24F WCI  24
6HR MIN TEMP:  30; 6HR MAX TEMP:  31;

CLINTON        CLOUDY    32  27  80 E3        30.26S
SEDALIA        CLOUDY    33  23  66 NE5       30.27R WCI  29
6HR MIN TEMP:  30; 6HR MAX TEMP:  33;

WARSAW         NOT AVBL
MARSHALL       CLOUDY    32  27  80 E6        30.27S WCI  26
CHILLICOTHE      N/A     30  20  66 CALM      30.29S
6HR MIN TEMP:  26; 6HR MAX TEMP:  30;

MOBERLY        CLOUDY    32  23  69 NE6       30.27F WCI  26
KIRKSVILLE     MOCLDY    26  21  81 NE6       30.27F WCI  19
6HR MIN TEMP:  24; 6HR MAX TEMP:  33;


$$

MOZ041-047>049-056>058-063>065-088>090-097-180100-
...EASTERN AND SOUTHERN MISSOURI...

CITY           SKY/WX    TMP DP  RH WIND       PRES   REMARKS
ST. LOUIS INTL MOCLDY    36  24  62 N3        30.29R
6HR MIN TEMP:  36; 6HR MAX TEMP:  39;

SPIRIT OF STL  CLOUDY   N/A N/A N/A NE3       30.27F
COLUMBIA       MOCLDY    33  24  69 CALM      30.26S
JEFFERSON CITY CLOUDY    35  23  61 NE3       30.28S
HANNIBAL       CLEAR     27  19  74 NE3       30.28F
ROLLA          CLOUDY    34  23  64 NE3       30.23S
LEBANON        CLOUDY    34  25  69 E5        30.23S WCI  30
OSAGE BEACH    CLOUDY    34  21  60 NE3       30.25S
SPRINGFIELD    LGT RAIN  35  30  82 E3        30.19F
BRANSON        LGT RAIN  32  32 100 E3        30.21S
NEVADA         CLOUDY    30  25  80 NE7       30.26R WCI  23
JOPLIN         LGT RAIN  33  30  88 VRB5      30.22R FOG     WCI  29
WEST PLAINS    LGT RAIN  38  28  67 SE5       30.23S WCI  34

$$

IAZ060-094-KSZ022-034>040-054-083-096-NEZ052-066-093-180100-
...KANSAS...SOUTHEAST NEBRASKA AND IOWA...

CITY           SKY/WX    TMP DP  RH WIND       PRES   REMARKS
TOPEKA         CLOUDY    31  22  69 NE8       30.23F WCI  23
6HR MIN TEMP:  28; 6HR MAX TEMP:  31;

MANHATTAN      CLOUDY    28  20  71 E7        30.23R WCI  21
EMPORIA        CLOUDY    29  25  85 E7        30.22R WCI  22
CHANUTE        MIX PCPN  32  28  85 E6        30.23R FOG     WCI  26
WICHITA        LGT SNOW  31  29  92 SE6       30.18R VSB 3/4 WCI  25
OMAHA          CLOUDY    28  17  63 CALM      30.28S
LINCOLN        CLOUDY    26  16  65 E6        30.25F WCI  19
FALLS CITY     CLOUDY    28  20  71 E7        30.24F WCI  21
LAMONI         CLOUDY    27  19  72 CALM      30.26S
DES MOINES     PTCLDY    25  15  66 N5        30.29F WCI  19

$$




USA.gov is the U.S. government's official web portal to all federal, state and local government web resources and services.